ABS-2A (MONGOLSAT-1)

Last updated on Tue Oct 21 2025 00:02:53 GMT+0000 (Coordinated Universal Time)

1 41588U 16038A 25293.55077145 .00000000 00000+0 00000+0 0 9997 2 41588 0.0226 235.1615 0001373 279.3231 147.7434 1.00269506 34301
UTC large
Height (km)
Speed (km/s)
/
Latitude / Longitude
Inclination (degrees)
Orbital Period (minutes)
Azimuth
Elevation
Range (km)
Doppler Factor

Next 0 passes for location: London (51.5072 / 0.1276)

Sorry there are no passes over London.